CW0728 Weather Reports


Display with metric or nautical units.
time (UTC)temp
F
wind
direction
speed
MPH
gust
MPH
rain 1hr
in
rain 24hr
in
rain mn
in
humidity
%
barometer
mb
20260902201511 68 111 0.0 0.0 0.00 0.00 0.00 75 1020.6
20260902200038 67 100 0.0 0.0 0.00 0.00 0.00 74 1020.8
20260902194524 67 123 0.0 0.0 0.00 0.00 0.00 74 1021.1
20260902193048 67 151 0.0 0.0 0.00 0.00 0.00 73 1021.2
20260902191523 67 103 0.0 0.0 0.00 0.00 0.00 73 1021.2
20260902190055 67 88 0.0 0.0 0.00 0.00 0.00 74 1021.1
20260902184540 67 101 0.0 0.0 0.00 0.00 0.00 73 1021.2
20260902183013 67 111 0.0 0.0 0.00 0.00 0.00 71 1021.2
20260902181549 67 91 0.0 0.0 0.00 0.00 0.00 73 1021.4
20260902180024 67 164 0.0 0.0 0.00 0.00 0.00 70 1021.4
20260902174509 69 98 0.0 0.0 0.00 0.00 0.00 70 1021.3
20260902173054 69 154 0.0 0.0 0.00 0.00 0.00 71 1021.2
20260902171534 69 86 0.0 6.0 0.00 0.00 0.00 71 1021.1
20260902170007 69 126 0.0 0.0 0.00 0.00 0.00 70 1021.2
20260902164557 69 157 0.0 0.0 0.00 0.00 0.00 72 1021.3
20260902163018 69 105 0.0 6.0 0.00 0.00 0.00 72 1021.4
20260902161558 69 184 0.0 7.0 0.00 0.00 0.00 72 1021.7
20260902160036 68 119 0.0 5.0 0.00 0.00 0.00 73 1021.8
20260902154535 68 167 0.0 4.0 0.00 0.00 0.00 72 1021.9
20260902153050 67 146 1.0 4.0 0.00 0.00 0.00 73 1022.0
20260902151538 68 121 0.0 6.0 0.00 0.00 0.00 72 1021.9
20260902150008 67 213 1.0 7.0 0.00 0.00 0.00 73 1021.6
20260902144544 66 141 0.0 0.0 0.00 0.00 0.00 74 1021.6
20260902143017 67 100 0.0 0.0 0.00 0.00 0.00 72 1021.8
20260902141556 67 119 0.0 0.0 0.00 0.00 0.00 74 1021.5
20260902140040 66 113 0.0 0.0 0.00 0.00 0.00 77 1021.2
20260902134512 66 184 0.0 0.0 0.00 0.00 0.00 80 1021.2
20260902133049 65 119 0.0 0.0 0.00 0.00 0.00 84 1021.3
20260902131522 64 117 0.0 0.0 0.00 0.00 0.00 87 1021.4
20260902130019 63 167 0.0 0.0 0.00 0.00 0.00 90 1021.4
20260902124544 62 95 0.0 0.0 0.00 0.00 0.00 93 1021.2
20260902123026 62 98 0.0 0.0 0.00 0.00 0.00 94 1021.3
20260902121552 61 90 0.0 0.0 0.00 0.00 0.00 94 1021.4
20260902120028 61 101 0.0 0.0 0.00 0.00 0.00 95 1021.4
20260902114512 60 87 0.0 0.0 0.00 0.00 0.00 94 1021.3
20260902113042 60 74 0.0 0.0 0.00 0.00 0.00 94 1021.3
20260902111519 60 144 0.0 0.0 0.00 0.00 0.00 94 1021.1
20260902104537 60 96 0.0 0.0 0.00 0.00 0.00 94 1020.7
20260902103013 60 107 0.0 0.0 0.00 0.00 0.00 94 1020.8
20260902101551 60 90 0.0 0.0 0.00 0.00 0.00 94 1020.8
20260902100034 60 105 0.0 0.0 0.00 0.00 0.00 94 1020.7
20260902094512 60 96 0.0 0.0 0.00 0.00 0.00 94 1020.7
20260902093051 60 103 0.0 0.0 0.00 0.00 0.00 94 1020.5
20260902091527 60 103 0.0 0.0 0.00 0.00 0.00 94 1020.5
20260902090000 60 86 0.0 0.0 0.00 0.00 0.00 94 1020.4
20260902084539 60 105 0.0 0.0 0.00 0.00 0.00 94 1020.3
20260902083034 60 104 0.0 0.0 0.00 0.00 0.00 94 1020.4
20260902081553 60 104 0.0 0.0 0.00 0.00 0.00 93 1020.4
20260902080027 60 104 0.0 0.0 0.00 0.00 0.00 93 1020.1
20260902074501 60 104 0.0 0.0 0.00 0.00 0.00 93 1019.9
20260902073045 60 104 0.0 0.0 0.00 0.00 0.00 93 1019.9
20260902071520 60 104 0.0 0.0 0.00 0.00 0.00 93 1019.8
20260902070047 60 104 0.0 0.0 0.00 0.00 0.00 93 1019.6
20260902064522 61 104 0.0 0.0 0.00 0.00 0.00 93 1019.6
20260902063109 61 104 0.0 0.0 0.00 0.00 0.00 93 1019.8
20260902061544 61 104 0.0 0.0 0.00 0.00 0.00 93 1019.9
20260902060019 61 104 0.0 0.0 0.00 0.00 0.00 93 1019.8
20260902054559 61 104 0.0 0.0 0.00 0.00 0.00 93 1019.7
20260902053033 61 104 0.0 0.0 0.00 0.00 0.00 92 1019.3
20260902051508 61 104 0.0 0.0 0.00 0.00 0.00 91 1019.1
20260902050043 61 104 0.0 0.0 0.00 0.00 0.00 91 1019.0
20260902044530 61 104 0.0 0.0 0.00 0.00 0.00 91 1018.9
20260902043003 61 104 0.0 0.0 0.00 0.00 0.00 91 1018.8
20260902041540 62 104 0.0 0.0 0.00 0.00 0.00 91 1018.7
20260902040012 62 104 0.0 0.0 0.00 0.00 0.00 91 1018.7
20260902034550 62 98 0.0 0.0 0.00 0.00 0.00 91 1018.7
20260902033025 62 97 0.0 0.0 0.00 0.00 0.00 91 1018.6
20260902031602 62 98 0.0 0.0 0.00 0.00 0.00 91 1018.4
20260902030050 62 98 0.0 0.0 0.00 0.00 0.00 91 1018.1
20260902024534 62 98 0.0 0.0 0.00 0.00 0.00 91 1018.1
20260902023030 62 97 0.0 0.0 0.00 0.00 0.00 91 1018.3
20260902021552 62 97 0.0 0.0 0.00 0.00 0.00 91 1018.2
20260902020021 62 98 0.0 0.0 0.00 0.00 0.00 90 1018.1
20260902014505 63 98 0.0 0.0 0.00 0.00 0.00 90 1018.5
20260902013042 63 100 0.0 0.0 0.00 0.00 0.00 90 1018.4
20260902011517 63 100 0.0 0.0 0.00 0.00 0.00 90 1018.2
20260902010055 63 99 0.0 0.0 0.00 0.00 0.00 89 1018.0
20260902004529 63 99 0.0 0.0 0.00 0.00 0.00 89 1018.0
20260902003015 64 99 0.0 0.0 0.00 0.00 0.00 89 1017.8
20260902001540 64 94 0.0 0.0 0.00 0.00 0.00 88 1017.6
20260902000016 64 86 0.0 0.0 0.00 0.00 0.00 88 1017.5
20260901234552 64 98 0.0 0.0 0.00 0.00 0.00 87 1017.6
20260901233038 65 98 0.0 0.0 0.00 0.00 0.00 87 1017.5
20260901231514 65 94 0.0 0.0 0.00 0.00 0.00 86 1017.5
20260901230059 66 91 0.0 0.0 0.00 0.00 0.00 85 1017.3
20260901224532 66 100 0.0 0.0 0.00 0.00 0.00 85 1017.2
20260901223014 66 94 0.0 0.0 0.00 0.00 0.00 85 1017.1
20260901221542 67 188 0.0 0.0 0.00 0.00 0.00 84 1017.2
20260901220049 67 138 0.0 0.0 0.00 0.00 0.00 84 1017.2
20260901214559 67 225 0.0 0.0 0.00 0.00 0.00 82 1017.0
20260901213100 68 94 0.0 0.0 0.00 0.00 0.00 82 1016.9
20260901211512 68 149 0.0 0.0 0.00 0.00 0.00 82 1016.8
20260901210059 68 222 0.0 0.0 0.00 0.00 0.00 81 1016.7
20260901204536 68 166 0.0 0.0 0.00 0.00 0.00 79 1016.7
20260901203038 70 115 0.0 0.0 0.00 0.00 0.00 76 1016.5